STARLINK-30235, 57294

Orbit data source: Space-Track

STARLINK-30235, 57294 is a payload satellite owned by SpaceX/Seattle (US) in LEO that was launched on Mon, 10 Jul 2023 UTC via an FALCON 9 launch vehicle from the Air Force Eastern Test Range (AFETR). Payload-class satellites include a variety of spacecraft equipped with specific instruments for various scientific and technological missions. These include communications satellites like Starlink; space stations such as the ISS; scientific satellites like the Hubble; Earth observation satellites from companies like Planet Labs, Umbra, and HawkEye 360; GPS; miniature CubeSats for education and research; and military/defense satellites.

Loading next visibility...
Identifier
57294, 2023-096E
Orbit
LEO
Country
Flag of USUS
Related business
Manufacturer
SpaceX/Seattle
Mission
Operational Commercial Communications
Bus & Motor
STARLINK V2M, Unknown motor
Mass
730 kg wet, ~700 kg dry
Launch date (UTC)
2023-07-10 (3 years ago)
Launch vehicle
FALCON 9
Launch site
Air Force Eastern Test Range (AFETR)
Object type
Payload
Rocket body
Debris
Shape & HBR
Box + 2 Pan, 17.7 m
Radar Cross Section
33.884 m², Large (>1 m²)

Expand to show TLE details & history
Last TLE update: 3 days ago

TLE from 3 days ago
0 STARLINK-30235
1 57294U 23096E   26170.53710833  .00000614  00000-0  31829-4 0  9991
2 57294  43.0036   7.9991 0000868 267.6812  92.3940 15.27578110163198
Epoch: 2026-06-19T12:53Z
TLE epoch observation values (Epoch: 2026-06-19T12:53:26.159Z)
Latitude
-0.00005°
Longitude
-93.12461°
Altitude
482.855 km
Speed
7.626 km/s
True Right ascension
00h 31m 59s
True Declination
0° 00' 00"
Sunlit
Object was in daylight at epoch
Visualization orbit readout
Latitude
Unknown
Longitude
Unknown
Altitude
Unknown
Speed
Unknown
Apparent Right ascension
Unknown
Apparent Declination
Unknown
Sunlit
N/A
Visualization observer readout
Local Sidereal Time
02:13:19
Azimuth
Unknown
Elevation
Unknown
Doppler factor
Unknown
Orbital elements
Apogee altitude
485.595 km
Perigee altitude
484.404 km
Semi-major axis
6,863.136 km
Eccentricity
0.00009
Inclination
43.0036°
RAAN
7.9991°
Arg. of periapsis
267.6812°
True anomaly
92.40394°
Mean anomaly
92.394°
Eccentric anomaly
92.39897°
Mean motion
3.81733 °/min
Orbital period
94.31 mins
BSTAR
0.000031829
Loading maneuver chart data...
Computing Atmospheric mass density...

Documentation

Showing up to 5 results
|